contact:dominique.lefevre@mio.osupytheas.fr, maurice.libes@osupytheas.fr, didier.mallarino@osupytheas.fr
Project:EMSO http://www.emso-fr.org/EMSO-France
Depth: 2436.0 m
Title:EMSO Ligure Ouest : Data MII capteur MICROCAT
DateTime_Computer,Latitude,Longitude,Temperature,Conductivity,Pressure,DateTime_Instrument
DateTime_Computer,Latitude,Longitude,degC,S m-1,dbar,DateTime_Instrument
2021-07-15T00:02:37Z,42.805,6.029,13.3021,4.60081,2470.46,2021-7-15T02:03:53Z
2021-07-15T00:05:40Z,42.805,6.029,13.3029,4.60079,2470.474,2021-7-15T02:06:56Z
2021-07-15T00:08:43Z,42.805,6.029,13.3021,4.60039,2470.474,2021-7-15T02:09:59Z
2021-07-15T00:11:46Z,42.805,6.029,13.3026,4.60060,2470.474,2021-7-15T02:13:02Z
2021-07-15T00:14:49Z,42.805,6.029,13.3021,4.60052,2470.474,2021-7-15T02:16:05Z
2021-07-15T00:17:53Z,42.805,6.029,13.3039,4.60062,2470.474,2021-7-15T02:19:09Z
2021-07-15T00:20:56Z,42.805,6.029,13.3033,4.60047,2470.46,2021-7-15T02:22:12Z
2021-07-15T00:23:59Z,42.805,6.029,13.3048,4.60042,2470.474,2021-7-15T02:25:15Z
2021-07-15T00:27:02Z,42.805,6.029,13.3049,4.60028,2470.497,2021-7-15T02:28:18Z
2021-07-15T00:30:05Z,42.805,6.029,13.3048,4.60053,2470.497,2021-7-15T02:31:21Z
2021-07-15T00:33:08Z,42.805,6.029,13.3022,4.60057,2470.497,2021-7-15T02:34:24Z
2021-07-15T00:36:11Z,42.805,6.029,13.3033,4.60037,2470.474,2021-7-15T02:37:27Z
2021-07-15T00:39:15Z,42.805,6.029,13.3043,4.60059,2470.46,2021-7-15T02:40:30Z
2021-07-15T00:42:18Z,42.805,6.029,13.3040,4.60073,2470.437,2021-7-15T02:43:34Z
2021-07-15T00:45:21Z,42.805,6.029,13.3034,4.60049,2470.474,2021-7-15T02:46:37Z
2021-07-15T00:48:24Z,42.805,6.029,13.3016,4.60049,2470.45,2021-7-15T02:49:40Z
2021-07-15T00:51:27Z,42.805,6.029,13.3043,4.60099,2470.474,2021-7-15T02:52:43Z
2021-07-15T00:54:30Z,42.805,6.029,13.3021,4.60074,2470.474,2021-7-15T02:55:46Z
2021-07-15T00:57:33Z,42.805,6.029,13.3032,4.60045,2470.46,2021-7-15T02:58:49Z
2021-07-15T01:00:36Z,42.805,6.029,13.3043,4.60036,2470.474,2021-7-15T03:01:52Z
2021-07-15T01:03:39Z,42.805,6.029,13.3063,4.60079,2470.413,2021-7-15T03:04:55Z
2021-07-15T01:06:43Z,42.805,6.029,13.3012,4.60064,2470.427,2021-7-15T03:07:59Z
2021-07-15T01:09:46Z,42.805,6.029,13.3034,4.60021,2470.45,2021-7-15T03:11:02Z
2021-07-15T01:12:49Z,42.805,6.029,13.3034,4.60019,2470.474,2021-7-15T03:14:05Z
2021-07-15T01:15:52Z,42.805,6.029,13.3041,4.60019,2470.474,2021-7-15T03:17:08Z
2021-07-15T01:18:55Z,42.805,6.029,13.3030,4.60024,2470.46,2021-7-15T03:20:11Z
2021-07-15T01:21:58Z,42.805,6.029,13.3039,4.60039,2470.497,2021-7-15T03:23:14Z
2021-07-15T01:25:01Z,42.805,6.029,13.3039,4.60016,2470.413,2021-7-15T03:26:17Z
2021-07-15T01:28:04Z,42.805,6.029,13.3035,4.60062,2470.437,2021-7-15T03:29:20Z
2021-07-15T01:31:08Z,42.805,6.029,13.3034,4.60050,2470.474,2021-7-15T03:32:24Z
2021-07-15T01:34:11Z,42.805,6.029,13.3028,4.60072,2470.413,2021-7-15T03:35:27Z
2021-07-15T01:37:14Z,42.805,6.029,13.3039,4.60015,2470.45,2021-7-15T03:38:30Z
2021-07-15T01:40:17Z,42.805,6.029,13.3043,4.60029,2470.46,2021-7-15T03:41:33Z
2021-07-15T01:43:20Z,42.805,6.029,13.3043,4.60012,2470.45,2021-7-15T03:44:36Z
2021-07-15T01:46:23Z,42.805,6.029,13.3045,4.60046,2470.437,2021-7-15T03:47:39Z
2021-07-15T01:49:26Z,42.805,6.029,13.3058,4.60035,2470.45,2021-7-15T03:50:42Z
2021-07-15T01:52:29Z,42.805,6.029,13.3058,4.60031,2470.437,2021-7-15T03:53:45Z
2021-07-15T01:55:33Z,42.805,6.029,13.3031,4.60019,2470.45,2021-7-15T03:56:49Z
2021-07-15T01:58:36Z,42.805,6.029,13.3045,4.60021,2470.427,2021-7-15T03:59:52Z
2021-07-15T02:01:39Z,42.805,6.029,13.3047,4.60019,2470.427,2021-7-15T04:02:55Z
2021-07-15T02:04:42Z,42.805,6.029,13.3047,4.60029,2470.427,2021-7-15T04:05:58Z
2021-07-15T02:07:45Z,42.805,6.029,13.3044,4.60031,2470.427,2021-7-15T04:09:01Z
2021-07-15T02:10:48Z,42.805,6.029,13.3043,4.60033,2470.427,2021-7-15T04:12:04Z
2021-07-15T02:13:51Z,42.805,6.029,13.3053,4.60019,2470.427,2021-7-15T04:15:07Z
2021-07-15T02:16:54Z,42.805,6.029,13.3039,4.60028,2470.474,2021-7-15T04:18:10Z
2021-07-15T02:19:58Z,42.805,6.029,13.3031,4.60021,2470.437,2021-7-15T04:21:14Z
2021-07-15T02:23:01Z,42.805,6.029,13.3039,4.60019,2470.39,2021-7-15T04:24:17Z
2021-07-15T02:26:04Z,42.805,6.029,13.3041,4.60014,2470.413,2021-7-15T04:27:20Z
2021-07-15T02:29:07Z,42.805,6.029,13.3033,4.60020,2470.404,2021-7-15T04:30:23Z
2021-07-15T02:32:10Z,42.805,6.029,13.3036,4.60017,2470.427,2021-7-15T04:33:26Z
2021-07-15T02:35:13Z,42.805,6.029,13.3046,4.60024,2470.39,2021-7-15T04:36:29Z
2021-07-15T02:38:16Z,42.805,6.029,13.3061,4.60010,2470.404,2021-7-15T04:39:32Z
2021-07-15T02:41:19Z,42.805,6.029,13.3058,4.60014,2470.38,2021-7-15T04:42:35Z
2021-07-15T02:44:23Z,42.805,6.029,13.3014,4.60038,2470.366,2021-7-15T04:45:39Z
2021-07-15T02:47:26Z,42.805,6.029,13.3001,4.60021,2470.366,2021-7-15T04:48:42Z
2021-07-15T02:50:29Z,42.805,6.029,13.3014,4.60033,2470.404,2021-7-15T04:51:45Z
2021-07-15T02:53:32Z,42.805,6.029,13.2993,4.60039,2470.404,2021-7-15T04:54:48Z
2021-07-15T02:56:35Z,42.805,6.029,13.3054,4.60053,2470.357,2021-7-15T04:57:51Z
2021-07-15T02:59:38Z,42.805,6.029,13.3013,4.60016,2470.404,2021-7-15T05:00:54Z
2021-07-15T03:02:41Z,42.805,6.029,13.3000,4.60010,2470.366,2021-7-15T05:03:57Z
2021-07-15T03:05:44Z,42.805,6.029,13.2998,4.60054,2470.366,2021-7-15T05:07:00Z
2021-07-15T03:08:48Z,42.805,6.029,13.2996,4.60021,2470.427,2021-7-15T05:10:03Z
2021-07-15T03:11:51Z,42.805,6.029,13.3000,4.60014,2470.38,2021-7-15T05:13:07Z
2021-07-15T03:14:54Z,42.805,6.029,13.3069,4.60019,2470.366,2021-7-15T05:16:10Z
2021-07-15T03:17:57Z,42.805,6.029,13.2994,4.60019,2470.404,2021-7-15T05:19:13Z
2021-07-15T03:21:00Z,42.805,6.029,13.2992,4.60015,2470.39,2021-7-15T05:22:16Z
2021-07-15T03:24:03Z,42.805,6.029,13.2993,4.60017,2470.39,2021-7-15T05:25:19Z
2021-07-15T03:27:06Z,42.805,6.029,13.2991,4.60023,2470.343,2021-7-15T05:28:22Z
2021-07-15T03:30:09Z,42.805,6.029,13.2995,4.60015,2470.366,2021-7-15T05:31:25Z
2021-07-15T03:33:13Z,42.805,6.029,13.2991,4.60017,2470.357,2021-7-15T05:34:28Z
2021-07-15T03:36:16Z,42.805,6.029,13.2988,4.60051,2470.404,2021-7-15T05:37:32Z
2021-07-15T03:39:19Z,42.805,6.029,13.2993,4.60063,2470.366,2021-7-15T05:40:35Z
2021-07-15T03:42:22Z,42.805,6.029,13.2998,4.60012,2470.366,2021-7-15T05:43:38Z
2021-07-15T03:45:25Z,42.805,6.029,13.2996,4.60011,2470.38,2021-7-15T05:46:41Z
2021-07-15T03:48:28Z,42.805,6.029,13.2998,4.60012,2470.334,2021-7-15T05:49:44Z
2021-07-15T03:51:31Z,42.805,6.029,13.3004,4.60015,2470.343,2021-7-15T05:52:47Z
2021-07-15T03:54:34Z,42.805,6.029,13.3007,4.60029,2470.366,2021-7-15T05:55:50Z
2021-07-15T03:57:38Z,42.805,6.029,13.3016,4.60042,2470.357,2021-7-15T05:58:53Z
2021-07-15T04:00:41Z,42.805,6.029,13.3021,4.60017,2470.38,2021-7-15T06:01:57Z
2021-07-15T04:03:44Z,42.805,6.029,13.3023,4.60022,2470.38,2021-7-15T06:05:00Z
2021-07-15T04:06:47Z,42.805,6.029,13.3024,4.60014,2470.31,2021-7-15T06:08:03Z
2021-07-15T04:09:50Z,42.805,6.029,13.3021,4.60016,2470.343,2021-7-15T06:11:06Z
2021-07-15T04:12:53Z,42.805,6.029,13.3006,4.60016,2470.357,2021-7-15T06:14:09Z
2021-07-15T04:15:56Z,42.805,6.029,13.3007,4.60026,2470.38,2021-7-15T06:17:12Z
2021-07-15T04:18:59Z,42.805,6.029,13.2996,4.60049,2470.357,2021-7-15T06:20:15Z
2021-07-15T04:22:02Z,42.805,6.029,13.2996,4.60054,2470.334,2021-7-15T06:23:18Z
2021-07-15T04:25:06Z,42.805,6.029,13.2993,4.60062,2470.32,2021-7-15T06:26:22Z
2021-07-15T04:28:09Z,42.805,6.029,13.2991,4.60048,2470.334,2021-7-15T06:29:25Z
2021-07-15T04:31:12Z,42.805,6.029,13.2988,4.60055,2470.343,2021-7-15T06:32:28Z
2021-07-15T04:34:15Z,42.805,6.029,13.2990,4.60018,2470.38,2021-7-15T06:35:31Z
2021-07-15T04:37:18Z,42.805,6.029,13.2994,4.60020,2470.32,2021-7-15T06:38:34Z
2021-07-15T04:40:21Z,42.805,6.029,13.2993,4.60031,2470.334,2021-7-15T06:41:37Z
2021-07-15T04:43:24Z,42.805,6.029,13.2992,4.60031,2470.366,2021-7-15T06:44:40Z
2021-07-15T04:46:27Z,42.805,6.029,13.2991,4.60017,2470.357,2021-7-15T06:47:43Z
2021-07-15T04:49:31Z,42.805,6.029,13.2991,4.60038,2470.32,2021-7-15T06:50:47Z
2021-07-15T04:52:34Z,42.805,6.029,13.2994,4.60011,2470.32,2021-7-15T06:53:50Z
2021-07-15T04:55:37Z,42.805,6.029,13.3003,4.60015,2470.343,2021-7-15T06:56:53Z
2021-07-15T04:58:40Z,42.805,6.029,13.2993,4.60031,2470.334,2021-7-15T06:59:56Z
2021-07-15T05:01:43Z,42.805,6.029,13.2994,4.60019,2470.297,2021-7-15T07:02:59Z
2021-07-15T05:04:46Z,42.805,6.029,13.2998,4.60052,2470.357,2021-7-15T07:06:02Z
2021-07-15T05:07:49Z,42.805,6.029,13.2991,4.60034,2470.357,2021-7-15T07:09:05Z
2021-07-15T05:10:52Z,42.805,6.029,13.2993,4.60028,2470.343,2021-7-15T07:12:08Z
2021-07-15T05:13:56Z,42.805,6.029,13.2992,4.60023,2470.32,2021-7-15T07:15:12Z
2021-07-15T05:16:59Z,42.805,6.029,13.2992,4.60014,2470.334,2021-7-15T07:18:15Z
2021-07-15T05:20:02Z,42.805,6.029,13.2997,4.60009,2470.32,2021-7-15T07:21:18Z
2021-07-15T05:23:05Z,42.805,6.029,13.2998,4.60032,2470.297,2021-7-15T07:24:21Z
2021-07-15T05:26:08Z,42.805,6.029,13.2998,4.60025,2470.32,2021-7-15T07:27:24Z
2021-07-15T05:29:11Z,42.805,6.029,13.3000,4.60042,2470.32,2021-7-15T07:30:27Z
2021-07-15T05:32:14Z,42.805,6.029,13.3006,4.60029,2470.32,2021-7-15T07:33:30Z
2021-07-15T05:35:17Z,42.805,6.029,13.3000,4.60036,2470.38,2021-7-15T07:36:33Z
2021-07-15T05:38:21Z,42.805,6.029,13.2991,4.60021,2470.357,2021-7-15T07:39:37Z
2021-07-15T05:41:24Z,42.805,6.029,13.2991,4.60044,2470.32,2021-7-15T07:42:40Z
2021-07-15T05:44:27Z,42.805,6.029,13.2992,4.60058,2470.32,2021-7-15T07:45:43Z
2021-07-15T05:47:30Z,42.805,6.029,13.2990,4.60031,2470.334,2021-7-15T07:48:46Z
2021-07-15T05:50:33Z,42.805,6.029,13.2989,4.60017,2470.334,2021-7-15T07:51:49Z
2021-07-15T05:53:36Z,42.805,6.029,13.2991,4.60035,2470.343,2021-7-15T07:54:52Z
2021-07-15T05:56:39Z,42.805,6.029,13.2989,4.60026,2470.334,2021-7-15T07:57:55Z
2021-07-15T05:59:42Z,42.805,6.029,13.2991,4.60010,2470.357,2021-7-15T08:00:58Z
2021-07-15T06:02:46Z,42.805,6.029,13.2991,4.60018,2470.343,2021-7-15T08:04:02Z
2021-07-15T06:05:49Z,42.805,6.029,13.2990,4.60034,2470.31,2021-7-15T08:07:05Z
2021-07-15T06:08:52Z,42.805,6.029,13.2993,4.60026,2470.343,2021-7-15T08:10:08Z
2021-07-15T06:11:55Z,42.805,6.029,13.2993,4.60021,2470.343,2021-7-15T08:13:11Z
2021-07-15T06:14:58Z,42.805,6.029,13.2991,4.60011,2470.357,2021-7-15T08:16:14Z
2021-07-15T06:18:01Z,42.805,6.029,13.2990,4.60009,2470.343,2021-7-15T08:19:17Z
2021-07-15T06:21:04Z,42.805,6.029,13.2993,4.60021,2470.343,2021-7-15T08:22:20Z
2021-07-15T06:24:07Z,42.805,6.029,13.2991,4.60022,2470.343,2021-7-15T08:25:23Z
2021-07-15T06:27:11Z,42.805,6.029,13.2993,4.60008,2470.343,2021-7-15T08:28:27Z
2021-07-15T06:30:14Z,42.805,6.029,13.2993,4.60006,2470.31,2021-7-15T08:31:30Z
2021-07-15T06:33:17Z,42.805,6.029,13.2993,4.60009,2470.334,2021-7-15T08:34:33Z
2021-07-15T06:36:20Z,42.805,6.029,13.2987,4.60016,2470.343,2021-7-15T08:37:36Z
2021-07-15T06:39:23Z,42.805,6.029,13.2985,4.60005,2470.343,2021-7-15T08:40:39Z
2021-07-15T06:42:26Z,42.805,6.029,13.2993,4.60012,2470.343,2021-7-15T08:43:42Z
2021-07-15T06:45:29Z,42.805,6.029,13.2995,4.60006,2470.334,2021-7-15T08:46:45Z
2021-07-15T06:48:32Z,42.805,6.029,13.2990,4.60004,2470.334,2021-7-15T08:49:48Z
2021-07-15T06:51:36Z,42.805,6.029,13.2989,4.60002,2470.357,2021-7-15T08:52:52Z
2021-07-15T06:54:39Z,42.805,6.029,13.2994,4.60003,2470.32,2021-7-15T08:55:55Z
2021-07-15T06:57:42Z,42.805,6.029,13.2988,4.60006,2470.343,2021-7-15T08:58:58Z
2021-07-15T07:00:45Z,42.805,6.029,13.2991,4.60014,2470.357,2021-7-15T09:02:01Z
2021-07-15T07:03:48Z,42.805,6.029,13.2989,4.60005,2470.32,2021-7-15T09:05:04Z
2021-07-15T07:06:51Z,42.805,6.029,13.2993,4.60006,2470.334,2021-7-15T09:08:07Z
2021-07-15T07:09:54Z,42.805,6.029,13.2993,4.60004,2470.334,2021-7-15T09:11:10Z
2021-07-15T07:12:57Z,42.805,6.029,13.2991,4.60001,2470.32,2021-7-15T09:14:13Z
2021-07-15T07:16:00Z,42.805,6.029,13.2990,4.60008,2470.343,2021-7-15T09:17:16Z
2021-07-15T07:19:04Z,42.805,6.029,13.2992,4.60000,2470.357,2021-7-15T09:20:20Z
2021-07-15T07:22:07Z,42.805,6.029,13.2995,4.60003,2470.353,2021-7-15T09:23:23Z
2021-07-15T07:25:10Z,42.805,6.029,13.2988,4.60002,2470.343,2021-7-15T09:26:26Z
2021-07-15T07:28:13Z,42.805,6.029,13.2988,4.60003,2470.39,2021-7-15T09:29:29Z
2021-07-15T07:31:16Z,42.805,6.029,13.2989,4.60002,2470.357,2021-7-15T09:32:32Z
2021-07-15T07:34:19Z,42.805,6.029,13.2990,4.60006,2470.357,2021-7-15T09:35:35Z
2021-07-15T07:37:22Z,42.805,6.029,13.2989,4.60006,2470.357,2021-7-15T09:38:38Z
2021-07-15T07:40:26Z,42.805,6.029,13.2989,4.60013,2470.32,2021-7-15T09:41:41Z
2021-07-15T07:43:29Z,42.805,6.029,13.2992,4.60004,2470.38,2021-7-15T09:44:45Z
2021-07-15T07:46:32Z,42.805,6.029,13.2993,4.60004,2470.38,2021-7-15T09:47:48Z
2021-07-15T07:49:35Z,42.805,6.029,13.2990,4.60019,2470.38,2021-7-15T09:50:51Z
2021-07-15T07:52:38Z,42.805,6.029,13.2992,4.60006,2470.357,2021-7-15T09:53:54Z
2021-07-15T07:55:41Z,42.805,6.029,13.2991,4.60001,2470.343,2021-7-15T09:56:57Z
2021-07-15T07:58:44Z,42.805,6.029,13.2990,4.60001,2470.366,2021-7-15T10:00:00Z
2021-07-15T08:01:47Z,42.805,6.029,13.2993,4.60002,2470.366,2021-7-15T10:03:03Z
2021-07-15T08:04:50Z,42.805,6.029,13.2994,4.60001,2470.38,2021-7-15T10:06:06Z
2021-07-15T08:07:54Z,42.805,6.029,13.2993,4.60002,2470.366,2021-7-15T10:09:10Z
2021-07-15T08:10:57Z,42.805,6.029,13.2996,4.60007,2470.404,2021-7-15T10:12:13Z
2021-07-15T08:14:00Z,42.805,6.029,13.2993,4.60006,2470.343,2021-7-15T10:15:16Z
2021-07-15T08:17:03Z,42.805,6.029,13.2990,4.60014,2470.343,2021-7-15T10:18:19Z
2021-07-15T08:20:06Z,42.805,6.029,13.2991,4.60011,2470.39,2021-7-15T10:21:22Z
2021-07-15T08:23:09Z,42.805,6.029,13.2986,4.60011,2470.38,2021-7-15T10:24:25Z
2021-07-15T08:26:12Z,42.805,6.029,13.2990,4.60016,2470.38,2021-7-15T10:27:28Z
2021-07-15T08:29:16Z,42.805,6.029,13.2992,4.60011,2470.366,2021-7-15T10:30:31Z
2021-07-15T08:32:19Z,42.805,6.029,13.2992,4.60014,2470.366,2021-7-15T10:33:35Z
2021-07-15T08:35:22Z,42.805,6.029,13.2992,4.60005,2470.343,2021-7-15T10:36:38Z
2021-07-15T08:38:25Z,42.805,6.029,13.2996,4.60003,2470.39,2021-7-15T10:39:41Z
2021-07-15T08:41:28Z,42.805,6.029,13.2991,4.60011,2470.38,2021-7-15T10:42:44Z
2021-07-15T08:44:31Z,42.805,6.029,13.2991,4.60004,2470.366,2021-7-15T10:45:47Z
2021-07-15T08:47:34Z,42.805,6.029,13.2990,4.60001,2470.366,2021-7-15T10:48:50Z
2021-07-15T08:50:37Z,42.805,6.029,13.2991,4.60002,2470.404,2021-7-15T10:51:53Z
2021-07-15T08:53:41Z,42.805,6.029,13.2990,4.60008,2470.427,2021-7-15T10:54:57Z
2021-07-15T08:56:44Z,42.805,6.029,13.2992,4.60001,2470.437,2021-7-15T10:58:00Z
2021-07-15T08:59:47Z,42.805,6.029,13.2987,4.60003,2470.413,2021-7-15T11:01:03Z
2021-07-15T09:02:50Z,42.805,6.029,13.2994,4.60004,2470.413,2021-7-15T11:04:06Z
2021-07-15T09:05:53Z,42.805,6.029,13.2989,4.60002,2470.366,2021-7-15T11:07:09Z
2021-07-15T09:08:56Z,42.805,6.029,13.2989,4.60002,2470.404,2021-7-15T11:10:12Z
2021-07-15T09:11:59Z,42.805,6.029,13.2993,4.60003,2470.343,2021-7-15T11:13:15Z
2021-07-15T09:15:02Z,42.805,6.029,13.2991,4.60003,2470.413,2021-7-15T11:16:18Z
2021-07-15T09:18:06Z,42.805,6.029,13.2991,4.60004,2470.343,2021-7-15T11:19:22Z
2021-07-15T09:21:09Z,42.805,6.029,13.2990,4.60003,2470.413,2021-7-15T11:22:25Z
2021-07-15T09:24:12Z,42.805,6.029,13.2993,4.60005,2470.413,2021-7-15T11:25:28Z
2021-07-15T09:27:15Z,42.805,6.029,13.2990,4.60011,2470.38,2021-7-15T11:28:31Z
2021-07-15T09:30:18Z,42.805,6.029,13.2991,4.60006,2470.413,2021-7-15T11:31:34Z
2021-07-15T09:33:21Z,42.805,6.029,13.2991,4.60013,2470.413,2021-7-15T11:34:37Z
2021-07-15T09:36:24Z,42.805,6.029,13.2991,4.60005,2470.437,2021-7-15T11:37:40Z
2021-07-15T09:39:27Z,42.805,6.029,13.2991,4.60025,2470.413,2021-7-15T11:40:43Z
2021-07-15T09:42:31Z,42.805,6.029,13.2991,4.60014,2470.413,2021-7-15T11:43:47Z
2021-07-15T09:45:34Z,42.805,6.029,13.2993,4.60014,2470.427,2021-7-15T11:46:50Z
2021-07-15T09:48:37Z,42.805,6.029,13.2993,4.60029,2470.45,2021-7-15T11:49:53Z
2021-07-15T09:51:40Z,42.805,6.029,13.2993,4.60008,2470.39,2021-7-15T11:52:56Z
2021-07-15T09:54:43Z,42.805,6.029,13.2990,4.60003,2470.427,2021-7-15T11:55:59Z
2021-07-15T09:57:46Z,42.805,6.029,13.2992,4.60002,2470.413,2021-7-15T11:59:02Z
2021-07-15T10:00:49Z,42.805,6.029,13.2990,4.60004,2470.413,2021-7-15T12:02:05Z
2021-07-15T10:03:52Z,42.805,6.029,13.2991,4.60005,2470.413,2021-7-15T12:05:08Z
2021-07-15T10:06:56Z,42.805,6.029,13.2987,4.60009,2470.39,2021-7-15T12:08:12Z
2021-07-15T10:09:59Z,42.805,6.029,13.2989,4.60008,2470.437,2021-7-15T12:11:15Z
2021-07-15T10:13:02Z,42.805,6.029,13.2992,4.60006,2470.413,2021-7-15T12:14:18Z
2021-07-15T10:16:05Z,42.805,6.029,13.2996,4.60009,2470.437,2021-7-15T12:17:21Z
2021-07-15T10:19:08Z,42.805,6.029,13.2993,4.60011,2470.437,2021-7-15T12:20:24Z
2021-07-15T10:22:11Z,42.805,6.029,13.2991,4.60006,2470.413,2021-7-15T12:23:27Z
2021-07-15T10:25:14Z,42.805,6.029,13.2990,4.60011,2470.437,2021-7-15T12:26:30Z
2021-07-15T10:28:17Z,42.805,6.029,13.2990,4.60021,2470.404,2021-7-15T12:29:33Z
2021-07-15T10:31:21Z,42.805,6.029,13.2991,4.60015,2470.427,2021-7-15T12:32:37Z
2021-07-15T10:34:24Z,42.805,6.029,13.2993,4.60011,2470.413,2021-7-15T12:35:40Z
2021-07-15T10:37:27Z,42.805,6.029,13.2998,4.60017,2470.427,2021-7-15T12:38:43Z
2021-07-15T10:40:30Z,42.805,6.029,13.2991,4.60013,2470.39,2021-7-15T12:41:46Z
2021-07-15T10:43:33Z,42.805,6.029,13.2993,4.60004,2470.413,2021-7-15T12:44:49Z
2021-07-15T10:46:36Z,42.805,6.029,13.2992,4.60011,2470.427,2021-7-15T12:47:52Z
2021-07-15T10:49:39Z,42.805,6.029,13.2992,4.60010,2470.413,2021-7-15T12:50:55Z
2021-07-15T10:52:43Z,42.805,6.029,13.2990,4.60006,2470.427,2021-7-15T12:53:58Z
2021-07-15T10:55:46Z,42.805,6.029,13.2991,4.60005,2470.427,2021-7-15T12:57:02Z
2021-07-15T10:58:49Z,42.805,6.029,13.2991,4.60003,2470.39,2021-7-15T13:00:05Z
2021-07-15T11:01:52Z,42.805,6.029,13.2993,4.60004,2470.39,2021-7-15T13:03:08Z
2021-07-15T11:04:55Z,42.805,6.029,13.2990,4.60005,2470.427,2021-7-15T13:06:11Z
2021-07-15T11:07:58Z,42.805,6.029,13.2989,4.60016,2470.399,2021-7-15T13:09:14Z
2021-07-15T11:11:01Z,42.805,6.029,13.2991,4.60006,2470.413,2021-7-15T13:12:17Z
2021-07-15T11:14:04Z,42.805,6.029,13.2993,4.60006,2470.404,2021-7-15T13:15:20Z
2021-07-15T11:17:08Z,42.805,6.029,13.3003,4.60021,2470.427,2021-7-15T13:18:23Z
2021-07-15T11:20:11Z,42.805,6.029,13.3022,4.60069,2470.413,2021-7-15T13:21:27Z
2021-07-15T11:23:14Z,42.805,6.029,13.3032,4.60037,2470.45,2021-7-15T13:24:30Z
2021-07-15T11:26:17Z,42.805,6.029,13.3030,4.60036,2470.427,2021-7-15T13:27:33Z
2021-07-15T11:29:20Z,42.805,6.029,13.3021,4.60063,2470.39,2021-7-15T13:30:36Z
2021-07-15T11:32:23Z,42.805,6.029,13.3011,4.60067,2470.39,2021-7-15T13:33:39Z
2021-07-15T11:35:26Z,42.805,6.029,13.3035,4.60081,2470.39,2021-7-15T13:36:42Z
2021-07-15T11:38:29Z,42.805,6.029,13.3026,4.60077,2470.404,2021-7-15T13:39:45Z
2021-07-15T11:41:33Z,42.805,6.029,13.3005,4.60059,2470.427,2021-7-15T13:42:49Z
2021-07-15T11:44:36Z,42.805,6.029,13.3011,4.60063,2470.39,2021-7-15T13:45:52Z
2021-07-15T11:47:39Z,42.805,6.029,13.3014,4.60100,2470.427,2021-7-15T13:48:55Z
2021-07-15T11:50:42Z,42.805,6.029,13.3020,4.60069,2470.343,2021-7-15T13:51:58Z
2021-07-15T11:53:45Z,42.805,6.029,13.3020,4.60080,2470.38,2021-7-15T13:55:01Z
2021-07-15T11:56:48Z,42.805,6.029,13.3021,4.60082,2470.38,2021-7-15T13:58:04Z
2021-07-15T11:59:51Z,42.805,6.029,13.3041,4.60087,2470.39,2021-7-15T14:01:07Z
2021-07-15T12:02:54Z,42.805,6.029,13.3030,4.60107,2470.39,2021-7-15T14:04:10Z
2021-07-15T12:05:58Z,42.805,6.029,13.3024,4.60093,2470.404,2021-7-15T14:07:14Z
2021-07-15T12:09:01Z,42.805,6.029,13.3018,4.60093,2470.39,2021-7-15T14:10:17Z
2021-07-15T12:12:04Z,42.805,6.029,13.3024,4.60060,2470.427,2021-7-15T14:13:20Z
2021-07-15T12:15:07Z,42.805,6.029,13.3026,4.60084,2470.404,2021-7-15T14:16:23Z
2021-07-15T12:18:10Z,42.805,6.029,13.3011,4.60109,2470.38,2021-7-15T14:19:26Z
2021-07-15T12:21:13Z,42.805,6.029,13.3018,4.60064,2470.39,2021-7-15T14:22:29Z
2021-07-15T12:24:16Z,42.805,6.029,13.3009,4.60072,2470.39,2021-7-15T14:25:32Z
2021-07-15T12:27:19Z,42.805,6.029,13.3018,4.60090,2470.45,2021-7-15T14:28:35Z
2021-07-15T12:30:23Z,42.805,6.029,13.3025,4.60067,2470.39,2021-7-15T14:31:39Z
2021-07-15T12:33:26Z,42.805,6.029,13.3006,4.60068,2470.427,2021-7-15T14:34:42Z
2021-07-15T12:36:29Z,42.805,6.029,13.3026,4.60038,2470.366,2021-7-15T14:37:45Z
2021-07-15T12:39:32Z,42.805,6.029,13.3021,4.60083,2470.343,2021-7-15T14:40:48Z
2021-07-15T12:42:35Z,42.805,6.029,13.3027,4.60030,2470.366,2021-7-15T14:43:51Z
2021-07-15T12:45:38Z,42.805,6.029,13.3018,4.60041,2470.366,2021-7-15T14:46:54Z
2021-07-15T12:48:41Z,42.805,6.029,13.3016,4.60082,2470.38,2021-7-15T14:49:57Z
2021-07-15T12:51:44Z,42.805,6.029,13.3011,4.60062,2470.38,2021-7-15T14:53:00Z
2021-07-15T12:54:48Z,42.805,6.029,13.3025,4.60074,2470.39,2021-7-15T14:56:04Z
2021-07-15T12:57:51Z,42.805,6.029,13.3024,4.60062,2470.38,2021-7-15T14:59:07Z
2021-07-15T13:00:54Z,42.805,6.029,13.3032,4.60066,2470.39,2021-7-15T15:02:10Z
2021-07-15T13:03:57Z,42.805,6.029,13.3023,4.60078,2470.38,2021-7-15T15:05:13Z
2021-07-15T13:07:00Z,42.805,6.029,13.3022,4.60038,2470.343,2021-7-15T15:08:16Z
2021-07-15T13:10:03Z,42.805,6.029,13.3033,4.60066,2470.427,2021-7-15T15:11:19Z
2021-07-15T13:13:06Z,42.805,6.029,13.3021,4.60099,2470.38,2021-7-15T15:14:22Z
2021-07-15T13:16:09Z,42.805,6.029,13.3030,4.60057,2470.39,2021-7-15T15:17:25Z
2021-07-15T13:19:13Z,42.805,6.029,13.3045,4.60062,2470.343,2021-7-15T15:20:29Z
2021-07-15T13:22:16Z,42.805,6.029,13.3043,4.60074,2470.357,2021-7-15T15:23:32Z
2021-07-15T13:25:19Z,42.805,6.029,13.3041,4.60075,2470.343,2021-7-15T15:26:35Z
2021-07-15T13:28:22Z,42.805,6.029,13.3055,4.60093,2470.343,2021-7-15T15:29:38Z
2021-07-15T13:31:25Z,42.805,6.029,13.3058,4.60084,2470.366,2021-7-15T15:32:41Z
2021-07-15T13:34:28Z,42.805,6.029,13.3068,4.60098,2470.38,2021-7-15T15:35:44Z
2021-07-15T13:37:31Z,42.805,6.029,13.3063,4.60079,2470.38,2021-7-15T15:38:47Z
2021-07-15T13:40:35Z,42.805,6.029,13.3078,4.60045,2470.38,2021-7-15T15:41:51Z
2021-07-15T13:43:38Z,42.805,6.029,13.3077,4.60055,2470.38,2021-7-15T15:44:54Z
2021-07-15T13:46:41Z,42.805,6.029,13.3089,4.60078,2470.38,2021-7-15T15:47:57Z
2021-07-15T13:49:44Z,42.805,6.029,13.3089,4.60021,2470.343,2021-7-15T15:51:00Z
2021-07-15T13:52:47Z,42.805,6.029,13.3067,4.60085,2470.343,2021-7-15T15:54:03Z
2021-07-15T13:55:50Z,42.805,6.029,13.3050,4.60069,2470.343,2021-7-15T15:57:06Z
2021-07-15T13:58:53Z,42.805,6.029,13.3025,4.60070,2470.343,2021-7-15T16:00:09Z
2021-07-15T14:01:56Z,42.805,6.029,13.3044,4.60082,2470.334,2021-7-15T16:03:12Z
2021-07-15T14:05:00Z,42.805,6.029,13.3068,4.60031,2470.38,2021-7-15T16:06:16Z
2021-07-15T14:08:03Z,42.805,6.029,13.3063,4.60073,2470.334,2021-7-15T16:09:19Z
2021-07-15T14:11:06Z,42.805,6.029,13.3060,4.60067,2470.357,2021-7-15T16:12:22Z
2021-07-15T14:14:09Z,42.805,6.029,13.3031,4.60063,2470.32,2021-7-15T16:15:25Z
2021-07-15T14:17:12Z,42.805,6.029,13.3035,4.60042,2470.343,2021-7-15T16:18:28Z
2021-07-15T14:20:15Z,42.805,6.029,13.3026,4.60050,2470.32,2021-7-15T16:21:31Z
2021-07-15T14:23:18Z,42.805,6.029,13.3022,4.60052,2470.32,2021-7-15T16:24:34Z
2021-07-15T14:26:21Z,42.805,6.029,13.3027,4.60069,2470.357,2021-7-15T16:27:37Z
2021-07-15T14:29:25Z,42.805,6.029,13.3034,4.60039,2470.32,2021-7-15T16:30:41Z
2021-07-15T14:32:28Z,42.805,6.029,13.3054,4.60038,2470.32,2021-7-15T16:33:44Z
2021-07-15T14:35:31Z,42.805,6.029,13.3039,4.60044,2470.297,2021-7-15T16:36:47Z
2021-07-15T14:38:34Z,42.805,6.029,13.3039,4.60061,2470.32,2021-7-15T16:39:50Z
2021-07-15T14:41:37Z,42.805,6.029,13.3031,4.60058,2470.334,2021-7-15T16:42:53Z
2021-07-15T14:44:40Z,42.805,6.029,13.3032,4.60060,2470.334,2021-7-15T16:45:56Z
2021-07-15T14:47:43Z,42.805,6.029,13.3039,4.60066,2470.343,2021-7-15T16:48:59Z
2021-07-15T14:50:46Z,42.805,6.029,13.3054,4.60055,2470.32,2021-7-15T16:52:03Z
2021-07-15T14:53:50Z,42.805,6.029,13.3056,4.60060,2470.32,2021-7-15T16:55:06Z
2021-07-15T14:56:53Z,42.805,6.029,13.3052,4.60047,2470.32,2021-7-15T16:58:09Z
2021-07-15T14:59:56Z,42.805,6.029,13.3053,4.60047,2470.334,2021-7-15T17:01:12Z
2021-07-15T15:02:59Z,42.805,6.029,13.3070,4.60037,2470.31,2021-7-15T17:04:15Z
2021-07-15T15:06:02Z,42.805,6.029,13.3079,4.60046,2470.31,2021-7-15T17:07:18Z
2021-07-15T15:09:05Z,42.805,6.029,13.3067,4.60036,2470.297,2021-7-15T17:10:21Z
2021-07-15T15:12:08Z,42.805,6.029,13.3079,4.60055,2470.297,2021-7-15T17:13:24Z
2021-07-15T15:15:12Z,42.805,6.029,13.3034,4.60031,2470.334,2021-7-15T17:16:27Z